sat.trackr.live / text

‹ back to catalog

STARLINK-3190

NORAD 49766 · 2021-115AU

PAYLOAD ACTIVE UNKNOWN

§ Identity

Operator
Country
US
Launch date
2021-12-02
Launch site
AFETR
Launch vehicle
Mass (kg)
RCS (m²)

Purposes: comms

External: N2YO · Heavens-Above · Gunter

§ Orbital elements

Epoch: 2026-09-20T04:33:26.549568Z

Period
93.79 min
Inclination
53.1581°
Eccentricity
0.0001328
Mean motion
15.35397298 rev/d
Perigee alt
458.8 km
Apogee alt
460.6 km
Semi-major
6,837.9 km
B*
1.7313e-5
RAAN
331.1714°
Arg perigee
81.9380°
Mean anomaly
278.1773°
Rev number
26,524

§ Raw data

STARLINK-31901 49766U 21115AU  26263.18989062  .00000223  00000+0  17313-4 0  99992 49766  53.1581 331.1714 0001328  81.9380 278.1773 15.35397298265246

JSON: /api/v1/satellites/49766 · /tle

For live sub-satellite position, see the globe view (requires WebGL).

§ Visibility from observer

Set your observer location to see the next 7 days of passes ≥ 10°. The values pass through the URL so the page stays shareable.

No JS? Fill the form by hand. The geolocation button needs JavaScript.